K4FB Weather Reports


Display with metric or nautical units.
time (UTC)temp
F
wind
direction
speed
MPH
gust
MPH
rain 1hr
in
rain 24hr
in
rain mn
in
humidity
%
barometer
mb
20260503031512 71 223 2.0 6.0 0.00 0.09 0.09 91 1014.1
20260503031006 71 248 3.0 7.0 0.00 0.09 0.09 91 1014.1
20260503030027 71 208 3.0 8.0 0.00 0.09 0.09 91 1014.2
20260503025506 71 215 4.0 10.0 0.00 0.09 0.09 91 1014.3
20260503025007 71 185 4.0 10.0 0.00 0.09 0.09 91 1014.3
20260503023035 70 205 3.0 7.0 0.00 0.09 0.09 92 1014.1
20260503022009 70 236 3.0 6.0 0.00 0.09 0.09 92 1013.8
20260503021519 70 233 2.0 5.0 0.00 0.09 0.09 92 1013.6
20260503014515 70 236 2.0 8.0 0.00 0.09 0.09 91 1013.4
20260503014006 70 203 3.0 7.0 0.00 0.09 0.09 91 1013.5
20260503013510 70 237 4.0 7.0 0.00 0.09 0.09 92 1013.5
20260503013013 70 223 3.0 7.0 0.00 0.09 0.09 92 1013.2
20260503012007 70 213 2.0 8.0 0.00 0.09 0.09 92 1013.1
20260503011518 70 200 1.0 8.0 0.00 0.09 0.09 93 1013.2
20260503011007 70 190 4.0 8.0 0.00 0.09 0.09 93 1013.1
20260503010031 70 203 3.0 8.0 0.00 0.09 0.09 93 1013.0
20260503005012 70 205 3.0 8.0 0.00 0.09 0.09 93 1012.8
20260503003503 70 315 0.0 3.0 0.00 0.09 0.09 93 1011.6
20260503003022 70 315 0.0 5.0 0.00 0.09 0.09 93 1011.6
20260503002516 70 314 1.0 5.0 0.00 0.09 0.09 93 1011.8
20260503001518 71 254 0.0 5.0 0.01 0.09 0.09 93 1011.5
20260503001008 71 240 2.0 7.0 0.01 0.09 0.09 93 1012.0
20260503000024 71 213 3.0 9.0 0.02 0.09 0.09 93 1012.2
20260502234008 71 223 2.0 5.0 0.03 0.09 0.09 93 1011.8
20260502233509 71 201 2.0 5.0 0.04 0.09 0.09 93 1011.7
20260502233009 71 171 2.0 4.0 0.04 0.09 0.09 93 1011.3
20260502232007 71 217 0.0 8.0 0.03 0.08 0.08 92 1011.8
20260502231519 71 194 1.0 8.0 0.03 0.08 0.08 93 1011.6
20260502230022 71 200 2.0 4.0 0.02 0.07 0.07 93 1011.5
20260502225007 71 214 1.0 7.0 0.02 0.07 0.07 93 1011.9
20260502224522 71 213 1.0 6.0 0.01 0.06 0.06 92 1012.1
20260502224008 71 228 2.0 8.0 0.01 0.06 0.06 92 1012.2
20260502223505 71 198 5.0 8.0 0.00 0.05 0.05 92 1012.5
20260502223018 71 207 3.0 9.0 0.00 0.05 0.05 92 1012.4
20260502222510 71 205 4.0 11.0 0.00 0.05 0.05 92 1012.1
20260502222005 71 190 7.0 11.0 0.00 0.05 0.05 92 1012.0
20260502220013 71 180 1.0 9.0 0.00 0.05 0.05 92 1011.6
20260502214521 71 200 6.0 11.0 0.01 0.05 0.05 91 1012.4
20260502214004 71 205 3.0 6.0 0.02 0.05 0.05 92 1012.2
20260502213507 70 208 2.0 5.0 0.05 0.05 0.05 92 1011.8
20260502213029 70 217 1.0 7.0 0.05 0.05 0.05 91 1011.7
20260502212506 70 284 2.0 8.0 0.05 0.05 0.05 91 1011.8
20260502212005 70 263 3.0 9.0 0.05 0.05 0.05 91 1012.1
20260502211522 70 240 3.0 9.0 0.05 0.05 0.05 91 1012.1
20260502211009 70 225 4.0 11.0 0.05 0.05 0.05 91 1012.1
20260502205006 71 240 5.0 10.0 0.04 0.04 0.04 87 1012.1
20260502204524 71 261 3.0 10.0 0.04 0.04 0.04 86 1011.9
20260502204006 71 332 2.0 12.0 0.03 0.03 0.03 84 1011.7
20260502203018 72 275 7.0 17.0 0.00 0.00 0.00 81 1012.3
20260502202509 73 234 6.0 18.0 0.00 0.00 0.00 79 1012.3
20260502201525 74 279 5.0 18.0 0.00 0.00 0.00 76 1012.4
20260502201006 76 271 7.0 24.0 0.00 0.00 0.00 72 1012.6
20260502200510 77 331 10.0 24.0 0.00 0.00 0.00 65 1012.7
20260502200036 81 330 13.0 21.0 0.00 0.00 0.00 63 1012.7
20260502194518 82 182 6.0 13.0 0.00 0.00 0.00 71 1011.9
20260502192008 83 248 8.0 12.0 0.00 0.00 0.00 69 1011.8
20260502191524 83 255 7.0 12.0 0.00 0.00 0.00 70 1011.7
20260502190509 84 252 6.0 12.0 0.00 0.00 0.00 72 1012.0
20260502190018 84 246 4.0 12.0 0.00 0.00 0.00 72 1012.0
20260502185508 84 257 5.0 15.0 0.00 0.00 0.00 71 1012.1
20260502185011 84 228 8.0 15.0 0.00 0.00 0.00 70 1012.0
20260502184526 84 228 8.0 18.0 0.00 0.00 0.00 69 1011.9
20260502183020 85 253 6.0 16.0 0.00 0.00 0.00 68 1012.0
20260502180509 86 209 11.0 19.0 0.00 0.00 0.00 66 1012.1
20260502170509 87 241 14.0 25.0 0.00 0.00 0.00 63 1012.1
20260502163020 88 202 10.0 23.0 0.00 0.00 0.00 61 1012.0
20260502162509 87 190 12.0 23.0 0.00 0.00 0.00 64 1012.0
20260502161006 85 189 8.0 15.0 0.00 0.00 0.00 67 1012.4
20260502160507 85 226 7.0 14.0 0.00 0.00 0.00 68 1012.3
20260502130503 74 213 6.0 13.0 0.00 0.00 0.00 87 1011.7
20260502123004 71 207 2.0 9.0 0.00 0.00 0.00 96 1011.6
20260502122003 70 160 5.0 10.0 0.00 0.00 0.00 96 1011.5
20260502121503 70 161 4.0 8.0 0.00 0.00 0.00 96 1011.3
20260502121005 70 206 4.0 9.0 0.00 0.00 0.00 96 1011.3
20260502120504 70 197 6.0 9.0 0.00 0.00 0.00 96 1011.4
20260502115504 69 181 6.0 10.0 0.00 0.00 0.00 96 1011.6
20260502115003 69 189 5.0 9.0 0.00 0.00 0.00 96 1011.5
20260502114508 69 184 3.0 9.0 0.00 0.00 0.00 96 1011.5
20260502114003 69 180 3.0 7.0 0.00 0.00 0.00 96 1011.6
20260502113503 69 180 2.0 5.0 0.00 0.00 0.00 96 1011.6
20260502113006 69 192 1.0 4.0 0.00 0.00 0.00 96 1011.6
20260502111508 69 188 1.0 3.0 0.00 0.00 0.00 96 1011.4
20260502111003 68 189 1.0 3.0 0.00 0.00 0.00 96 1011.5
20260502110503 68 187 0.0 3.0 0.00 0.00 0.00 96 1011.4
20260502105504 68 183 1.0 3.0 0.00 0.00 0.00 96 1011.3
20260502105003 68 182 0.0 2.0 0.00 0.00 0.00 96 1011.3
20260502104513 68 182 0.0 2.0 0.00 0.00 0.00 96 1011.2
20260502104003 68 182 0.0 2.0 0.00 0.00 0.00 96 1011.2
20260502103503 68 182 0.0 3.0 0.00 0.00 0.00 96 1011.0
20260502103011 67 182 0.0 3.0 0.00 0.00 0.00 96 1010.8
20260502102503 67 182 1.0 3.0 0.00 0.00 0.00 96 1010.7
20260502102003 67 181 0.0 3.0 0.00 0.00 0.00 96 1010.7
20260502101508 67 190 0.0 3.0 0.00 0.00 0.00 96 1010.9
20260502101002 66 181 1.0 3.0 0.00 0.00 0.00 95 1010.9
20260502100502 66 176 0.0 3.0 0.00 0.00 0.00 95 1011.0
20260502091508 66 231 0.0 0.0 0.00 0.00 0.00 95 1011.7
20260502091003 66 231 0.0 0.0 0.00 0.00 0.00 94 1011.7
20260502090502 66 231 0.0 0.0 0.00 0.00 0.00 94 1011.6
20260502071517 67 231 0.0 0.0 0.00 0.00 0.00 93 1012.0
20260502071004 68 231 0.0 0.0 0.00 0.00 0.00 93 1012.0
20260502070017 68 231 0.0 0.0 0.00 0.00 0.00 93 1012.1
20260502065507 68 231 0.0 0.0 0.00 0.00 0.00 93 1012.1
20260502065011 68 231 0.0 0.0 0.00 0.00 0.00 94 1012.2
20260502064517 68 231 0.0 0.0 0.00 0.00 0.00 93 1012.2
20260502064007 68 231 0.0 0.0 0.00 0.00 0.00 93 1012.2
20260502063504 68 231 0.0 0.0 0.00 0.00 0.00 93 1012.3
20260502063018 68 231 0.0 0.0 0.00 0.00 0.00 93 1012.3
20260502062509 68 231 0.0 0.0 0.00 0.00 0.00 93 1012.3
20260502062006 68 231 0.0 0.0 0.00 0.00 0.00 93 1012.3
20260502061515 68 231 0.0 0.0 0.00 0.00 0.00 93 1012.5
20260502061004 68 231 0.0 0.0 0.00 0.00 0.00 93 1012.6
20260502060507 68 231 0.0 0.0 0.00 0.00 0.00 92 1012.5
20260502060012 68 231 0.0 0.0 0.00 0.00 0.00 92 1012.6
20260502055505 68 231 0.0 0.0 0.00 0.00 0.00 93 1012.5
20260502055006 69 231 0.0 0.0 0.00 0.00 0.00 92 1012.4
20260502054516 69 231 0.0 0.0 0.00 0.00 0.00 92 1012.4
20260502053504 69 231 0.0 0.0 0.00 0.00 0.00 92 1012.4
20260502053016 69 231 0.0 1.0 0.00 0.00 0.00 92 1012.6
20260502052504 69 231 0.0 1.0 0.00 0.00 0.00 92 1012.7
20260502052008 69 231 0.0 1.0 0.00 0.00 0.00 92 1012.8
20260502051518 69 231 0.0 2.0 0.00 0.00 0.00 92 1012.8
20260502051003 69 231 0.0 2.0 0.00 0.00 0.00 92 1012.8
20260502050505 69 231 0.0 2.0 0.00 0.00 0.00 91 1012.7
20260502050005 69 231 0.0 1.0 0.00 0.00 0.00 90 1012.6
20260502045503 69 231 0.0 1.0 0.00 0.00 0.00 91 1012.6
20260502045009 69 231 0.0 1.0 0.00 0.00 0.00 91 1012.7
20260502044505 69 231 0.0 0.0 0.00 0.00 0.00 90 1012.8
20260502044002 70 231 0.0 0.0 0.00 0.00 0.00 90 1012.8
20260502043505 70 231 0.0 0.0 0.00 0.00 0.00 89 1012.8
20260502043014 70 231 0.0 0.0 0.00 0.00 0.00 89 1012.7
20260502041517 70 231 0.0 0.0 0.00 0.00 0.00 88 1012.8
20260502041004 71 231 0.0 0.0 0.00 0.00 0.00 87 1012.7
20260502040500 71 231 0.0 0.0 0.00 0.00 0.00 87 1012.8
20260502035503 71 231 0.0 2.0 0.00 0.00 0.00 87 1012.7
20260502035003 71 231 0.0 2.0 0.00 0.00 0.00 87 1012.7
20260502034507 72 231 0.0 2.0 0.00 0.00 0.00 86 1012.9
20260502034006 72 231 0.0 3.0 0.00 0.00 0.00 86 1012.9
20260502033504 72 231 0.0 3.0 0.00 0.00 0.00 86 1012.9
20260502033011 72 231 1.0 3.0 0.00 0.00 0.00 85 1012.8
20260502032506 72 230 1.0 2.0 0.00 0.00 0.00 85 1012.7